[[{"header":{"parameterUnit":"m.s-1","parameterCategory":1,"la1":30.2991,"la2":30.254,"lo1":-89.0895,"lo2":-89.0444,"dy":0.0017,"dx":0.0017,"nx":28,"ny":28,"refTime":"2025-04-05T09:00:00:Z","depth":0,"parameterNumber":2,"parameterNumberName":"U-component_of_WINDS"},"data":[0,0,0,0,0,0,0,0,0,0,0,0,0,0,0,0,0,0,0,0,0,0,0,0,0,0,0,0,0,0,0,0,0,0,0,0,0,0,0,0,0,0,0,0,0,0,0,0,0,0,0,0,0,0,0,0,0,0,-5.0265,-5.0267,0,-5.0407,-5.0409,-5.041,-5.0433,-5.0431,-5.043,-5.0429,-5.0571,-5.0576,-5.0581,0,0,0,0,0,0,0,0,0,0,0,0,0,-5.0012,-5.0017,-5.0265,-5.0267,-5.0269,-5.0407,-5.0409,-5.0411,-5.0433,-5.0431,-5.043,-5.0428,-5.0569,-5.0575,-5.0581,0,0,0,0,0,0,0,0,0,0,0,0,0,-5.0135,-5.0018,-5.0265,-5.0297,-5.0301,-5.0406,-5.0409,-5.0411,-5.0433,-5.0431,-5.0429,-5.0428,-5.0567,-5.0575,-5.0582,-5.0665,0,0,-5.0605,-5.0608,0,0,0,0,0,0,0,0,-5.0128,-5.0144,-5.029,-5.0295,-5.03,-5.04,-5.0372,-5.0496,-5.0434,-5.0383,-5.0429,-5.0427,-5.0515,-5.0527,-5.0558,-5.0671,-5.0677,-5.0605,-5.061,-5.0613,-5.0615,0,0,0,0,0,0,0,-5.0119,-5.0138,-5.0321,-5.0292,-5.0298,-5.0303,-5.0319,-5.0395,-5.0458,-5.0387,-5.0389,-5.0406,-5.0518,-5.055,-5.0561,-5.0679,-5.0605,-5.0612,-5.0616,-5.0619,-5.0868,-5.087,0,0,0,0,0,0,-5.0105,-5.0131,-5.0317,-5.0325,-5.0207,-5.0309,-5.0326,-5.037,-5.0457,-5.0469,-5.0407,-5.0406,-5.0539,-5.0552,-5.0566,-5.0668,-5.0613,-5.062,-5.0624,-5.0866,-5.0869,-5.0871,0,0,0,0,0,0,-5.01,-5.0122,-5.0311,-5.0229,-5.0253,-5.0316,-5.0364,-5.0374,-5.0406,-5.0472,-5.0483,-5.0429,-5.0538,-5.0556,-5.064,-5.0673,-5.0623,-5.063,-5.0864,-5.0867,-5.087,-5.0873,0,0,0,0,0,0,-5.0093,-5.012,-5.0152,-5.0229,-5.0258,-5.0383,-5.0366,-5.0378,-5.0419,-5.0419,-5.0496,-5.0507,-5.0538,-5.0629,-5.0648,-5.0683,-5.0636,-5.0861,-5.0865,-5.0869,-5.087,-5.0876,-5.0881,0,0,0,0,0,-5.0083,-5.0147,-5.0154,-5.0176,-5.03,-5.0385,-5.0401,-5.0436,-5.0422,-5.0455,-5.0497,-5.0504,-5.0667,-5.0637,-5.0659,-5.0696,-5.0859,-5.0864,-5.0869,-5.0867,-5.0875,-5.0881,0,0,0,0,0,0,-5.007,-5.0157,-5.0166,-5.0256,-5.0313,-5.0389,-5.0431,-5.0443,-5.0504,-5.0502,-5.0542,-5.0559,-5.0641,-5.0678,-5.0643,-5.0781,-5.0762,-5.0771,-5.0754,-5.0761,-5.0766,-5.0755,-5.0642,0,0,0,0,0,-5.0078,-5.0141,-5.0213,-5.0286,-5.0314,-5.0368,-5.0406,-5.0429,-5.0489,-5.0513,-5.0562,-5.0619,-5.0684,-5.0725,-5.0788,-5.0876,-5.0893,-5.0913,-5.0918,-5.0922,-5.0929,-5.0978,-5.0987,-5.0887,-5.0887,-5.0887,0,0,-5.0094,-5.0149,-5.0186,-5.0285,-5.0331,-5.0395,-5.0388,-5.0455,-5.0502,-5.0523,-5.0605,-5.0644,-5.0711,-5.0797,-5.0838,-5.083,-5.0961,-5.0929,-5.0931,-5.0936,-5.0984,-5.0993,-5.1002,-5.0891,-5.089,-5.0889,0,0,-5.0155,-5.0204,-5.027,-5.0317,-5.0389,-5.0424,-5.044,-5.0515,-5.0541,-5.0625,-5.0642,-5.0699,-5.0809,-5.0856,-5.0894,-5.0975,-5.0983,-5.0995,-5.1021,-5.1069,-5.1077,-5.1084,-5.1111,-5.1121,-5.1002,-5.1002,-5.1002,0,-5.0165,-5.0262,-5.0302,-5.0369,-5.0411,-5.0435,-5.0501,-5.0545,-5.0633,-5.0661,-5.0652,-5.0791,-5.0838,-5.0935,-5.0955,-5.0986,-5.1005,-5.0985,-5.1073,-5.108,-5.1087,-5.1114,-5.1124,-5.1003,-5.1002,-5.1002,-5.1002,0,-5.0271,-5.0338,-5.0383,-5.0468,-5.0516,-5.0582,-5.0631,-5.0674,-5.0694,-5.073,-5.0815,-5.0873,-5.0947,-5.0973,-5.0992,-5.1074,-5.1066,-5.1065,-5.1045,-5.1097,-5.1123,-5.1133,-5.1004,-5.1003,-5.1003,-5.1003,0,0,-5.0325,-5.0433,-5.0448,-5.0487,-5.0569,-5.0621,-5.0689,-5.0763,-5.0799,-5.086,-5.0917,-5.101,-5.1009,-5.1053,-5.1078,-5.112,-5.1179,-5.1113,-5.1115,-5.1121,-5.1271,-5.127,-5.1282,-5.1186,-5.1188,-5.119,-5.1265,0,-5.0394,-5.0516,-5.0554,-5.0655,-5.0717,-5.0742,-5.08,-5.0856,-5.0893,-5.095,-5.099,-5.1055,-5.105,-5.1076,-5.1119,-5.1162,-5.1209,-5.1158,-5.1238,-5.124,-5.1217,-5.1295,-5.1295,-5.1362,-5.1275,-5.1277,-5.1279,0,-5.0491,-5.0554,-5.0662,-5.0736,-5.0763,-5.0815,-5.0887,-5.0942,-5.1006,-5.103,-5.1079,-5.1101,-5.1172,-5.1152,-5.1249,-5.1213,-5.1249,-5.1275,-5.1279,-5.1285,-5.126,-5.1302,-5.1385,-5.1394,-5.1295,-5.1294,-5.1292,0,-5.0517,-5.0629,-5.0708,-5.0741,-5.083,-5.0866,-5.0905,-5.0968,-5.101,-5.1073,-5.11,-5.117,-5.1208,-5.1261,-5.1301,-5.1283,-5.1395,-5.1378,-5.1415,-5.1414,-5.1435,-5.1433,-5.1522,-5.1462,-5.1462,-5.1462,-5.1461,0,-5.0589,-5.0653,-5.0721,-5.0769,-5.0842,-5.0886,-5.0956,-5.0996,-5.1052,-5.1108,-5.1134,-5.1186,-5.1237,-5.1295,-5.1327,-5.1403,-5.142,-5.144,-5.1447,-5.1436,-5.1433,-5.1458,-5.1453,-5.1464,-5.1464,-5.1463,-5.1463,0,-5.0629,-5.0678,-5.0765,-5.0843,-5.0864,-5.0914,-5.098,-5.1028,-5.1066,-5.1137,-5.1156,-5.1215,-5.1286,-5.1332,-5.1421,-5.1443,-5.1525,-5.1532,-5.1503,-5.1506,-5.154,-5.1535,-5.1646,-5.1663,-5.1593,-5.1594,-5.1594,0,-5.0671,-5.0721,-5.0805,-5.0845,-5.0884,-5.0948,-5.0991,-5.1037,-5.1081,-5.1159,-5.1197,-5.1269,-5.1329,-5.144,-5.1491,-5.156,-5.1567,-5.1602,-5.1578,-5.1565,-5.1566,-5.1561,-5.1566,-5.1605,-5.1605,-5.1606,-5.1606,0,-5.0739,-5.0761,-5.0823,-5.0895,-5.0946,-5.1004,-5.1062,-5.1093,-5.1149,-5.1197,-5.127,-5.1316,-5.1409,-5.148,-5.1553,-5.1593,-5.1608,-5.1614,-5.1626,-5.1614,-5.1594,-5.1603,-5.1511,-5.161,-5.161,-5.161,-5.1609,-5.1609,-5.078,-5.0826,-5.0892,-5.0961,-5.101,-5.1063,-5.1112,-5.1157,-5.1219,-5.1297,-5.1321,-5.1396,-5.146,-5.1561,-5.1602,-5.1661,-5.1657,-5.1674,-5.1679,-5.1682,-5.1681,-5.1587,-5.1675,-5.1675,-5.1675,-5.1675,-5.1675,0,-5.0848,-5.0892,-5.0955,-5.1036,-5.109,-5.1102,-5.1168,-5.1211,-5.1278,-5.1337,-5.1396,-5.1479,-5.1548,-5.1606,-5.1677,-5.1714,-5.1723,-5.1731,-5.1727,-5.1736,-5.1681,-5.1663,-5.1722,-5.1722,-5.1722,-5.1722,-5.1722,-5.1722,-5.0889,-5.0967,-5.0997,-5.1099,-5.1143,-5.1217,-5.1253,-5.1303,-5.135,-5.1442,-5.15,-5.1538,-5.1596,-5.1672,-5.1736,-5.1752,-5.1776,-5.1782,-5.1798,-5.1745,-5.174,-5.1734,-5.1717,-5.1787,-5.1787,-5.1848,-5.1848,-5.1849]},{"header":{"parameterUnit":"m.s-1","parameterCategory":1,"la1":30.2991,"la2":30.254,"lo1":-89.0895,"lo2":-89.0444,"dy":0.0017,"dx":0.0017,"nx":28,"ny":28,"refTime":"2025-04-05T09:00:00:Z","depth":0,"parameterNumber":3,"parameterNumberName":"V-component_of_WINDS"},"data":[0,0,0,0,0,0,0,0,0,0,0,0,0,0,0,0,0,0,0,0,0,0,0,0,0,0,0,0,0,0,0,0,0,0,0,0,0,0,0,0,0,0,0,0,0,0,0,0,0,0,0,0,0,0,0,0,0,0,6.2733,6.2734,0,6.2895,6.2897,6.2899,6.2909,6.2907,6.2905,6.2903,6.3063,6.3068,6.3074,0,0,0,0,0,0,0,0,0,0,0,0,0,6.2425,6.2431,6.2732,6.2734,6.2736,6.2895,6.2897,6.2899,6.2909,6.2907,6.2904,6.2902,6.3061,6.3068,6.3075,0,0,0,0,0,0,0,0,0,0,0,0,0,6.257,6.2433,6.2732,6.276,6.2765,6.2895,6.2897,6.29,6.2909,6.2907,6.2904,6.2901,6.3058,6.3067,6.3076,6.3186,0,0,6.3103,6.3107,0,0,0,0,0,0,0,0,6.2562,6.2581,6.2754,6.2759,6.2764,6.2879,6.2847,6.2996,6.291,6.2854,6.2903,6.29,6.3003,6.3017,6.3053,6.3194,6.3201,6.3104,6.3109,6.3113,6.3116,0,0,0,0,0,0,0,6.2552,6.2574,6.2797,6.2757,6.2763,6.2764,6.2781,6.2876,6.2942,6.2859,6.286,6.2879,6.3005,6.3044,6.3057,6.3203,6.3104,6.3112,6.3117,6.3121,6.3445,6.3448,0,0,0,0,0,0,6.2537,6.2566,6.2791,6.2801,6.2654,6.2771,6.2791,6.2845,6.2941,6.2953,6.2882,6.2879,6.303,6.3046,6.3062,6.32,6.3113,6.3122,6.3127,6.3442,6.3446,6.345,0,0,0,0,0,0,6.253,6.2557,6.2785,6.2684,6.2713,6.278,6.284,6.2849,6.2888,6.2958,6.297,6.291,6.3029,6.305,6.3157,6.3206,6.3126,6.3134,6.3438,6.3443,6.3448,6.3476,0,0,0,0,0,0,6.2522,6.2555,6.2598,6.2685,6.2719,6.2878,6.2843,6.2854,6.2905,6.2903,6.2988,6.2999,6.3028,6.3143,6.3166,6.3217,6.3141,6.3434,6.3441,6.3446,6.3471,6.3481,6.349,0,0,0,0,0,6.2511,6.2597,6.26,6.2627,6.2775,6.2881,6.29,6.2934,6.2909,6.2953,6.2998,6.2996,6.3197,6.3154,6.3179,6.3234,6.3431,6.3439,6.3446,6.3466,6.3479,6.3489,0,0,0,0,0,0,6.2511,6.2609,6.2613,6.2731,6.2798,6.2882,6.2938,6.2945,6.3018,6.3014,6.3051,6.307,6.3176,6.3215,6.3166,6.3347,6.3311,6.3324,6.3318,6.333,6.334,6.3328,6.3148,0,0,0,0,0,6.2525,6.2605,6.2685,6.2781,6.2815,6.2871,6.2918,6.2939,6.3009,6.3036,6.3089,6.3155,6.3234,6.3284,6.3359,6.3476,6.3495,6.3526,6.3536,6.3543,6.3554,6.3621,6.3636,6.3474,6.3474,6.3474,0,0,6.2554,6.2618,6.2665,6.2783,6.2837,6.2918,6.2895,6.298,6.304,6.3048,6.3154,6.3195,6.3271,6.3385,6.3437,6.342,6.3603,6.3553,6.3558,6.3565,6.363,6.3646,6.3659,6.3479,6.3478,6.3477,0,0,6.2649,6.2705,6.2793,6.2849,6.2933,6.297,6.2991,6.3075,6.3104,6.3211,6.322,6.3291,6.3424,6.3479,6.3524,6.3644,6.3646,6.3667,6.3717,6.3782,6.3795,6.3806,6.3851,6.3866,6.3677,6.3677,6.3678,0,6.2674,6.2799,6.2836,6.2924,6.2976,6.2991,6.308,6.3131,6.3234,6.3269,6.325,6.342,6.3472,6.3599,6.3629,6.3664,6.369,6.3658,6.379,6.3802,6.3814,6.3856,6.3873,6.368,6.3679,6.3679,6.3679,0,6.2827,6.2913,6.2973,6.3077,6.3135,6.3222,6.3272,6.3327,6.3344,6.3383,6.3492,6.3556,6.3646,6.3677,6.3692,6.3808,6.3796,6.3783,6.3747,6.3831,6.3872,6.3888,6.3683,6.3682,6.3681,6.3681,0,0,6.2925,6.3051,6.3072,6.3121,6.3216,6.3282,6.337,6.3462,6.3509,6.3579,6.3655,6.3769,6.3759,6.3811,6.3832,6.3889,6.3983,6.387,6.3872,6.389,6.4116,6.4126,6.4144,6.3984,6.3988,6.399,6.411,0,6.3032,6.3193,6.3231,6.3368,6.3448,6.3465,6.3542,6.3608,6.3647,6.372,6.3763,6.3844,6.3824,6.3856,6.3913,6.3959,6.4029,6.3951,6.4054,6.4058,6.4036,6.4165,6.4176,6.4286,6.4126,6.4129,6.4131,0,6.3178,6.3257,6.3403,6.3491,6.3526,6.3595,6.3683,6.3753,6.3828,6.3853,6.3912,6.3929,6.4021,6.3981,6.4109,6.4055,6.41,6.4129,6.4134,6.4146,6.41,6.4182,6.4321,6.4338,6.4156,6.4154,6.4152,0,6.3238,6.3379,6.3486,6.3527,6.3631,6.368,6.3725,6.3798,6.3851,6.3927,6.3963,6.4047,6.4094,6.4158,6.4198,6.4164,6.4323,6.4285,6.4346,6.4345,6.4379,6.4376,6.4529,6.4405,6.4405,6.4405,6.4404,0,6.3354,6.3443,6.3515,6.3581,6.3682,6.3724,6.3822,6.3867,6.3932,6.4007,6.4024,6.4093,6.414,6.4215,6.4246,6.4348,6.4368,6.4391,6.4398,6.439,6.4387,6.442,6.4414,6.4409,6.4408,6.4407,6.4406,0,6.3438,6.3489,6.3608,6.3698,6.3723,6.3793,6.387,6.3934,6.3975,6.4069,6.4093,6.4156,6.4246,6.4292,6.4402,6.4423,6.4539,6.454,6.4514,6.4518,6.4576,6.4571,6.4756,6.4784,6.464,6.4642,6.4643,0,6.3509,6.3579,6.3678,6.3731,6.3778,6.3862,6.3918,6.3962,6.4019,6.4113,6.4166,6.4257,6.4333,6.4475,6.453,6.4615,6.462,6.4679,6.4633,6.4624,6.4623,6.4619,6.4627,6.4688,6.4689,6.469,6.4691,0,6.3631,6.3655,6.3736,6.3827,6.3895,6.3967,6.4039,6.4081,6.4137,6.42,6.4294,6.4353,6.4469,6.4559,6.4649,6.4694,6.4702,6.4706,6.4724,6.4717,6.4701,6.4713,6.4539,6.4701,6.47,6.4699,6.4699,6.4698,6.3712,6.3777,6.3858,6.3948,6.4008,6.4076,6.4142,6.4193,6.4273,6.4372,6.4393,6.4493,6.4568,6.4691,6.4738,6.4816,6.4803,6.483,6.4837,6.4843,6.4848,6.4688,6.4832,6.4832,6.4832,6.4832,6.4831,0,6.3837,6.3891,6.3974,6.4077,6.4148,6.4153,6.4233,6.4293,6.4381,6.4452,6.4528,6.4637,6.4726,6.4789,6.4879,6.4929,6.4936,6.4952,6.4949,6.4959,6.4853,6.4828,6.4945,6.4945,6.4945,6.4945,6.4945,6.4945,6.3911,6.4021,6.4054,6.4193,6.4246,6.4347,6.4393,6.4455,6.4513,6.4635,6.471,6.4752,6.482,6.4916,6.4998,6.5014,6.5047,6.5063,6.5079,6.4978,6.4966,6.4955,6.4933,6.507,6.507,6.518,6.5181,6.5182]}]]